User: anonymous   Login
Location: Caltech
(34.1382°N, 118.1253°W)
Time: 11:41:28
(UTC-07:00)
Language:

OAO 2 Rocket - Orbit

View from above orbital plane
View from above orbital plane
View from above satellite
View from above satellite

Ground track
Ground track

The orbit data is extracted from the following two-line orbital elements,

1  3598U 68110B   17202.95134260 +.00000029 +00000-0 +11325-4 0  9990
2  3598 034.9931 140.9073 0049185 150.4756 209.8728 14.54316414550633
Epoch (UTC): 21 July 2017 22:49:56
Eccentricity: 0.0049185
inclination: 34.9931°
perigee height: 677 km
apogee height: 746 km
right ascension of ascending node: 140.9073°
argument of perigee: 150.4756°
revolutions per day: 14.54316414
mean anomaly at epoch: 209.8728°
orbit number at epoch: 55063

The dashed part of the orbit path shows where the satellite is in the earth's shadow,  

DLR